Location: Arthez
(43.0833°N, 0.2500°W)
Time: 11:08:05
(UTC+00:00)

Cosmos 304 Rocket - Pass Details

Date: 29 May 2022
Orbit: 679 x 686 km, 74.0° (Epoch: 01 July)

Event Time Altitude Azimuth Distance (km) Brightness Sun altitude
Exits shadow 01:29:40 25° 272° (W) 1,361 5.1 -22.0°
Maximum altitude 01:30:57 29° 299° (WNW) 1,256 5.1 -21.9°
Drops below altitude 10° 01:35:09 10° 360° (N) 2,143 7.2 -21.6°
Sets 01:37:45 0° 12° (NNE) 3,063 8.5 -21.4°
